H1 CPF 2 NER 2024 1 11 9 011 01 glonass142 H2 2001801 9142 45358 2024 1 11 0 0 0 2024 1 14 23 45 0 900 1 1 0 0 0 1 H9 10 0 60320 0.00000 0 1460591.099 -14556413.476 20922105.258 10 0 60320 900.00000 0 3062352.512 -12446909.765 22078494.933 10 0 60320 1800.00000 0 4892705.008 -10375100.306 22807198.558 10 0 60320 2700.00000 0 6915192.824 -8399908.458 23094097.332 10 0 60320 3600.00000 0 9083161.401 -6573327.590 22933603.603 10 0 60320 4500.00000 0 11341496.739 -4938416.492 22328770.299 10 0 60320 5400.00000 0 13628730.540 -3527680.984 21291236.875 10 0 60320 6300.00000 0 15879425.371 -2361908.006 19841012.343 10 0 60320 7200.00000 0 18026742.293 -1449499.970 18006098.780 10 0 60320 8100.00000 0 20005085.592 -786336.614 15821961.495 10 0 60320 9000.00000 0 21752715.525 -356169.877 13330854.800 10 0 60320 9900.00000 0 23214220.818 -131535.243 10581015.166 10 0 60320 10800.00000 0 24342747.874 -75141.411 7625736.172 10 0 60320 11700.00000 0 25101893.201 -141679.994 4522342.174 10 0 60320 12600.00000 0 25467179.198 -279979.040 1331079.996 10 0 60320 13500.00000 0 25427050.452 -435409.369 -1886050.151 10 0 60320 14400.00000 0 24983347.648 -552441.597 -5066501.752 10 0 60320 15300.00000 0 24151238.049 -577244.987 -8148403.110 10 0 60320 16200.00000 0 22958604.459 -460217.063 -11071768.104 10 0 60320 17100.00000 0 21444917.520 -158335.580 -13779672.146 10 0 60320 18000.00000 0 19659638.217 362768.257 -16219369.491 10 0 60320 18900.00000 0 17660217.419 1127104.687 -18343329.232 10 0 60320 19800.00000 0 15509776.487 2147062.239 -20110169.046 10 0 60320 20700.00000 0 13274566.424 3422641.525 -21485467.839 10 0 60320 21600.00000 0 11021312.477 4941219.849 -22442441.044 10 0 60320 22500.00000 0 8814555.661 6677857.942 -22962465.192 10 0 60320 23400.00000 0 6714102.806 8596137.053 -23035441.440 10 0 60320 24300.00000 0 4772691.823 10649492.106 -22659991.058 10 0 60320 25200.00000 0 3033969.600 12782985.640 -21843479.224 10 0 60320 26100.00000 0 1530866.601 14935448.474 -20601866.887 10 0 60320 27000.00000 0 284435.237 17041897.595 -18959393.886 10 0 60320 27900.00000 0 -696800.617 19036129.982 -16948099.788 10 0 60320 28800.00000 0 -1416959.242 20853383.606 -14607192.201 10 0 60320 29700.00000 0 -1892374.933 22432954.051 -11982275.307 10 0 60320 30600.00000 0 -2150651.978 23720657.069 -9124454.126 10 0 60320 31500.00000 0 -2229240.613 24671033.950 -6089332.604 10 0 60320 32400.00000 0 -2173596.938 25249207.521 -2935925.613 10 0 60320 33300.00000 0 -2035006.213 25432311.460 274493.297 10 0 60320 34200.00000 0 -1868162.960 25210433.689 3479585.413 10 0 60320 35100.00000 0 -1728611.287 24587035.171 6617157.948 10 0 60320 36000.00000 0 -1670154.370 23578827.573 9626368.978 10 0 60320 36900.00000 0 -1742342.975 22215115.874 12448902.762 10 0 60320 37800.00000 0 -1988149.144 20536634.347 15030092.971 10 0 60320 38700.00000 0 -2441923.085 18593925.190 17319972.664 10 0 60320 39600.00000 0 -3127719.096 16445327.895 19274231.471 10 0 60320 40500.00000 0 -4058060.790 14154663.131 20855062.574 10 0 60320 41400.00000 0 -5233197.446 11788707.167 22031884.233 10 0 60320 42300.00000 0 -6640882.951 9414561.119 22781923.049 10 0 60320 43200.00000 0 -8256687.185 7097023.201 23090648.694 10 0 60320 44100.00000 0 -10044827.840 4896071.786 22952052.469 10 0 60320 45000.00000 0 -11959489.264 2864562.362 22368764.669 10 0 60320 45900.00000 0 -13946574.911 1046232.612 21352008.500 10 0 60320 46800.00000 0 -15945822.087 -525902.785 19921391.020 10 0 60320 47700.00000 0 -17893192.536 -1830701.887 18104534.315 10 0 60320 48600.00000 0 -19723440.740 -2859542.643 15936552.985 10 0 60320 49500.00000 0 -21372754.065 -3616440.987 13459386.754 10 0 60320 50400.00000 0 -22781355.279 -4117635.128 10720999.805 10 0 60320 51300.00000 0 -23895959.023 -4390653.534 7774461.162 10 0 60320 52200.00000 0 -24671979.241 -4472905.741 4676922.904 10 0 60320 53100.00000 0 -25075394.452 -4409855.216 1488515.397 10 0 60320 54000.00000 0 -25084191.596 -4252851.453 -1728819.331 10 0 60320 54900.00000 0 -24689326.609 -4056713.142 -4912533.356 10 0 60320 55800.00000 0 -23895159.957 -3877165.148 -8000693.870 10 0 60320 56700.00000 0 -22719347.520 -3768238.610 -10933194.991 10 0 60320 57600.00000 0 -21192190.190 -3779745.341 -13652935.979 10 0 60320 58500.00000 0 -19355468.599 -3954934.762 -16106941.895 10 0 60320 59400.00000 0 -17260811.223 -4328434.023 -18247404.027 10 0 60320 60300.00000 0 -14967664.001 -4924559.962 -20032619.029 10 0 60320 61200.00000 0 -12540946.474 -5756075.756 -21427807.817 10 0 60320 62100.00000 0 -10048492.710 -6823446.185 -22405797.888 10 0 60320 63000.00000 0 -7558384.238 -8114624.191 -22947555.514 10 0 60320 63900.00000 0 -5136286.689 -9605378.763 -23042557.371 10 0 60320 64800.00000 0 -2842901.474 -11260151.232 -22688994.438 10 0 60320 65700.00000 0 -731638.761 -13033404.547 -21893804.326 10 0 60320 66600.00000 0 1153391.446 -14871409.221 -20672531.641 10 0 60320 67500.00000 0 2778986.985 -16714391.095 -19049019.362 10 0 60320 68400.00000 0 4123993.850 -18498950.743 -17054937.553 10 0 60320 69300.00000 0 5179932.880 -20160652.798 -14729158.964 10 0 60320 70200.00000 0 5951088.324 -21636676.295 -12116994.131 10 0 60320 71100.00000 0 6454056.545 -22868414.577 -9269301.359 10 0 60320 72000.00000 0 6716775.957 -23803915.432 -6241489.528 10 0 60320 72900.00000 0 6777081.136 -24400059.035 -3092433.780 10 0 60320 73800.00000 0 6680844.050 -24624382.402 116674.215 10 0 60320 74700.00000 0 6479782.613 -24456474.125 3323518.384 10 0 60320 75600.00000 0 6229030.534 -23888881.433 6465869.161 10 0 60320 76500.00000 0 5984572.156 -22927492.193 9482789.369 10 0 60320 77400.00000 0 5800651.275 -21591376.590 12315811.614 10 0 60320 78300.00000 0 5727263.617 -19912095.791 14910064.637 10 0 60320 79200.00000 0 5807838.647 -17932507.027 17215327.367 10 0 60320 80100.00000 0 6077208.178 -15705115.243 19186991.086 10 0 60320 81000.00000 0 6559946.879 -13290039.991 20786912.153 10 0 60320 81900.00000 0 7269154.155 -10752681.720 21984139.970 10 0 60320 82800.00000 0 8205728.408 -8161183.741 22755507.223 10 0 60320 83700.00000 0 9358164.307 -5583794.083 23086072.071 10 0 60320 84600.00000 0 10702882.111 -3086235.355 22969404.445 10 0 60320 85500.00000 0 12205076.213 -729190.205 22407711.376 10 0 60321 0.00000 0 13820048.592 1433994.659 21411799.029 10 0 60321 900.00000 0 15494973.874 3359293.169 20000871.165 10 0 60321 1800.00000 0 17171021.693 5013589.217 18202168.571 10 0 60321 2700.00000 0 18785752.157 6375809.311 16050453.566 10 0 60321 3600.00000 0 20275683.474 7437549.121 13587349.511 10 0 60321 4500.00000 0 21578926.158 8203169.292 10860546.357 10 0 60321 5400.00000 0 22637773.898 8689356.526 7922886.453 10 0 60321 6300.00000 0 23401142.518 8924168.351 4831347.320 10 0 60321 7200.00000 0 23826754.161 8945601.704 1645940.443 10 0 60321 8100.00000 0 23882974.048 8799745.679 -1571452.845 10 0 60321 9000.00000 0 23550221.320 8538596.550 -4758285.765 10 0 60321 9900.00000 0 22821893.118 8217627.784 -7852566.908 10 0 60321 10800.00000 0 21704761.473 7893218.483 -10794073.045 10 0 60321 11700.00000 0 20218824.786 7620049.947 -13525529.522 10 0 60321 12600.00000 0 18396618.828 7448581.666 -15993734.245 10 0 60321 13500.00000 0 16282015.112 7422714.824 -18150602.519 10 0 60321 14400.00000 0 13928556.273 7577743.451 -19954111.584 10 0 60321 15300.00000 0 11397397.762 7938681.198 -21369125.784 10 0 60321 16200.00000 0 8754941.796 8519035.609 -22368085.914 10 0 60321 17100.00000 0 6070262.435 9320082.748 -22931549.019 10 0 60321 18000.00000 0 3412429.432 10330673.659 -23048568.089 10 0 60321 18900.00000 0 847842.567 11527581.499 -22716904.306 10 0 60321 19800.00000 0 -1562312.413 12876375.221 -21943067.841 10 0 60321 20700.00000 0 -3764380.378 14332783.266 -20742186.659 10 0 60321 21600.00000 0 -5714229.864 15844489.958 -19137706.122 10 0 60321 22500.00000 0 -7378840.274 17353288.938 -17160925.563 10 0 60321 23400.00000 0 -8737418.121 18797502.794 -14850381.200 10 0 60321 24300.00000 0 -9781997.197 20114566.809 -12251087.858 10 0 60321 25200.00000 0 -10517499.369 21243667.781 -9413654.724 10 0 60321 26100.00000 0 -10961255.501 22128326.581 -6393292.967 10 0 60321 27000.00000 0 -11142008.784 22718815.600 -3248735.163 10 0 60321 27900.00000 0 -11098444.539 22974309.300 -41088.168 10 0 60321 28800.00000 0 -10877310.424 22864677.551 3167357.573 10 0 60321 29700.00000 0 -10531208.001 22371846.612 6314338.684 10 0 60321 30600.00000 0 -10116150.200 21490671.051 9338825.647 10 0 60321 31500.00000 0 -9688988.650 20229280.457 12182202.231 10 0 60321 32400.00000 0 -9304819.911 18608886.926 14789394.912 10 0 60321 33300.00000 0 -9014480.032 16663061.729 17109930.985 10 0 60321 34200.00000 0 -8862232.742 14436511.522 19098905.665 10 0 60321 35100.00000 0 -8883748.099 11983405.030 20717840.520 10 0 60321 36000.00000 0 -9104456.028 9365319.357 21935417.829 10 0 60321 36900.00000 0 -9538343.431 6648890.501 22728077.774 10 0 60321 37800.00000 0 -10187245.071 3903264.456 23080468.007 10 0 60321 38700.00000 0 -11040658.027 1197453.182 22985737.664 10 0 60321 39600.00000 0 -12076087.929 -1402296.456 22445670.597 10 0 60321 40500.00000 0 -13259913.344 -3835013.393 21470655.268 10 0 60321 41400.00000 0 -14548733.289 -6047290.127 20079491.514 10 0 60321 42300.00000 0 -15891142.884 -7995253.929 18299037.148 10 0 60321 43200.00000 0 -17229864.254 -9646140.717 16163700.162 10 0 60321 44100.00000 0 -18504144.832 -10979406.890 13714785.054 10 0 60321 45000.00000 0 -19652323.601 -11987333.196 10999704.669 10 0 60321 45900.00000 0 -20614458.356 -12675095.699 8071071.530 10 0 60321 46800.00000 0 -21334903.913 -13060300.862 4985685.269 10 0 60321 47700.00000 0 -21764732.571 -13172004.233 1803435.084 10 0 60321 48600.00000 0 -21863894.277 -13049253.974 -1413861.797 10 0 60321 49500.00000 0 -21603024.321 -12739220.657 -4603663.088 10 0 60321 50400.00000 0 -20964820.951 -12294992.514 -7703922.012 10 0 60321 51300.00000 0 -19944933.167 -11773129.744 -10654301.086 10 0 60321 52200.00000 0 -18552319.608 -11231081.991 -13397354.640 10 0 60321 53100.00000 0 -16809061.760 -10724579.123 -15879656.087 10 0 60321 54000.00000 0 -14749637.938 -10305106.728 -18052847.101 10 0 60321 54900.00000 0 -12419687.277 -10017574.204 -19874587.476 10 0 60321 55800.00000 0 -9874314.758 -9898275.123 -21309386.490 10 0 60321 56700.00000 0 -7176007.621 -9973227.070 -22329299.199 10 0 60321 57600.00000 0 -4392249.929 -10256961.906 -22914473.818 10 0 60321 58500.00000 0 -1592934.794 -10751818.212 -23053539.468 10 0 60321 59400.00000 0 1152317.856 -11447766.208 -22743826.791 10 0 60321 60300.00000 0 3776826.244 -12322772.802 -21991417.281 10 0 60321 61200.00000 0 6219383.516 -13343691.455 -20811020.581 10 0 60321 62100.00000 0 8426560.953 -14467639.203 -19225682.383 10 0 60321 63000.00000 0 10354682.238 -15643802.600 -17266328.910 10 0 60321 63900.00000 0 11971387.293 -16815596.035 -14971157.199 10 0 60321 64800.00000 0 13256721.629 -17923081.028 -12384883.486 10 0 60321 65700.00000 0 14203707.242 -18905544.013 -9557864.776 10 0 60321 66600.00000 0 14818372.961 -19704123.503 -6545111.335 10 0 60321 67500.00000 0 15119245.034 -20264375.452 -3405209.918 10 0 60321 68400.00000 0 15136321.462 -20538668.472 -199179.329 10 0 60321 69300.00000 0 14909575.278 -20488307.828 3010718.755 10 0 60321 70200.00000 0 14487051.693 -20085298.849 6162190.105 10 0 60321 71100.00000 0 13922640.821 -19313675.730 9194115.570 10 0 60321 72000.00000 0 13273621.069 -18170340.188 12047732.470 10 0 60321 72900.00000 0 12598077.393 -16665375.048 14667767.054 10 0 60321 73800.00000 0 11952303.478 -14821819.836 17003496.645 10 0 60321 74700.00000 0 11388297.028 -12674917.826 19009721.657 10 0 60321 75600.00000 0 10951453.023 -10270865.739 20647629.747 10 0 60321 76500.00000 0 10678551.214 -7665117.649 21885536.559 10 0 60321 77400.00000 0 10596121.561 -4920312.808 22699489.874 10 0 60321 78300.00000 0 10719255.567 -2103912.239 23073726.580 10 0 60321 79200.00000 0 11050912.883 714359.318 23000974.418 10 0 60321 80100.00000 0 11581752.167 3465161.683 22482593.130 10 0 60321 81000.00000 0 12290493.592 6082169.675 21528552.367 10 0 60321 81900.00000 0 13144798.494 8504578.372 20157246.391 10 0 60321 82800.00000 0 14102630.317 10679380.667 18395148.417 10 0 60321 83700.00000 0 15114040.988 12563323.821 16276310.209 10 0 60321 84600.00000 0 16123309.057 14124464.502 13841715.341 10 0 60321 85500.00000 0 17071340.919 15343258.081 11138497.324 10 0 60322 0.00000 0 17898235.004 16213136.885 8219036.768 10 0 60322 900.00000 0 18545901.926 16740553.685 5139952.421 10 0 60322 1800.00000 0 18960629.138 16944487.326 1961008.904 10 0 60322 2700.00000 0 19095482.963 16855432.695 -1256043.229 10 0 60322 3600.00000 0 18912444.581 16513916.187 -4448668.710 10 0 60322 4500.00000 0 18384188.914 15968599.839 -7554767.821 10 0 60322 5400.00000 0 17495429.649 15274054.285 -10513891.068 10 0 60322 6300.00000 0 16243771.825 14488295.106 -13268423.802 10 0 60322 7200.00000 0 14640034.243 13670187.337 -15764716.736 10 0 60322 8100.00000 0 12708026.388 12876828.687 -17954139.472 10 0 60322 9000.00000 0 10483787.700 12161022.964 -19794035.698 10 0 60322 9900.00000 0 8014319.885 11568951.360 -21248560.788 10 0 60322 10800.00000 0 5355864.441 11138140.783 -22289385.053 10 0 60322 11700.00000 0 2571796.762 10895815.643 -22896248.711 10 0 60322 12600.00000 0 -269775.558 10857703.119 -23057357.649 10 0 60322 13500.00000 0 -3098610.260 11027342.559 -22769612.352 10 0 60322 14400.00000 0 -5845015.639 11395928.109 -22038665.694 10 0 60322 15300.00000 0 -8442511.672 11942691.059 -20878808.656 10 0 60322 16200.00000 0 -10830356.399 12635805.373 -19312686.480 10 0 60322 17100.00000 0 -12955832.708 13433777.699 -17370851.056 10 0 60322 18000.00000 0 -14776200.745 14287262.605 -15091158.596 10 0 60322 18900.00000 0 -16260235.452 15141225.730 -12518024.739 10 0 60322 19800.00000 0 -17389286.188 15937362.868 -9701552.031 10 0 60322 20700.00000 0 -18157815.648 16616672.165 -6696547.357 10 0 60322 21600.00000 0 -18573397.266 17122070.224 -3561449.046 10 0 60322 22500.00000 0 -18656173.191 17400941.228 -357185.188 10 0 60322 23400.00000 0 -18437797.564 17407511.137 2854013.998 10 0 60322 24300.00000 0 -17959911.473 17104946.710 6009826.113 10 0 60322 25200.00000 0 -17272215.432 16467090.838 9049045.038 10 0 60322 26100.00000 0 -16430221.908 15479761.308 11912764.257 10 0 60322 27000.00000 0 -15492783.412 14141558.528 14545512.342 10 0 60322 27900.00000 0 -14519500.647 12464148.437 16896319.079 10 0 60322 28800.00000 0 -13568119.687 10472008.737 18919692.365 10 0 60322 29700.00000 0 -12692027.160 8201648.773 20576488.026 10 0 60322 30600.00000 0 -11937947.813 5700335.061 21834656.891 10 0 60322 31500.00000 0 -11343940.148 3024374.643 22669855.856 10 0 60322 32400.00000 0 -10937773.179 237026.415 23065912.197 10 0 60322 33300.00000 0 -10735751.437 -2593874.371 23015133.006 10 0 60322 34200.00000 0 -10742036.889 -5398481.564 22518454.232 10 0 60322 35100.00000 0 -10948495.886 -8107588.978 21585426.555 10 0 60322 36000.00000 0 -11335077.701 -10655258.496 20234038.012 10 0 60322 36900.00000 0 -11870709.303 -12981317.991 18490376.079 10 0 60322 37800.00000 0 -12514669.643 -15033626.647 16388134.688 10 0 60322 38700.00000 0 -13218386.717 -16770014.539 13967974.443 10 0 60322 39600.00000 0 -13927582.903 -18159816.244 11276747.108 10 0 60322 40500.00000 0 -14584679.134 -19184934.845 8366598.131 10 0 60322 41400.00000 0 -15131357.229 -19840391.748 5293963.495 10 0 60322 42300.00000 0 -15511172.477 -20134339.101 2118479.663 10 0 60322 43200.00000 0 -15672105.944 -20087533.939 -1098172.640 10 0 60322 44100.00000 0 -15568947.931 -19732295.886 -4293468.350 10 0 60322 45000.00000 0 -15165410.677 -19110992.101 -7405257.989 10 0 60322 45900.00000 0 -14435879.503 -18274113.359 -10372983.190 10 0 60322 46800.00000 0 -13366726.654 -17278022.661 -13138863.362 10 0 60322 47700.00000 0 -11957130.481 -16182471.862 -15649029.414 10 0 60322 48600.00000 0 -10219363.537 -15047991.796 -17854581.535 10 0 60322 49500.00000 0 -8178535.704 -13933266.781 -19712549.665 10 0 60322 50400.00000 0 -5871801.588 -12892605.098 -21186737.222 10 0 60322 51300.00000 0 -3347064.177 -11973612.799 -22248431.263 10 0 60322 52200.00000 0 -661228.042 -11215169.483 -22876964.970 10 0 60322 53100.00000 0 2121925.532 -10645791.681 -23060121.427 10 0 60322 54000.00000 0 4934153.212 -10282452.877 -22794370.872 10 0 60322 54900.00000 0 7705353.636 -10129909.711 -22084936.979 10 0 60322 55800.00000 0 10366252.366 -10180562.306 -20945691.044 10 0 60322 56700.00000 0 12851056.027 -10414853.973 -19398876.429 10 0 60322 57600.00000 0 15099965.264 -10802192.631 -17474668.861 10 0 60322 58500.00000 0 17061442.071 -11302354.122 -15210581.523 10 0 60322 59400.00000 0 18694137.497 -11867307.227 -12650726.879 10 0 60322 60300.00000 0 19968400.102 -12443382.294 -9844950.074 10 0 60322 61200.00000 0 20867303.234 -12973690.919 -6847851.353 10 0 60322 62100.00000 0 21387149.563 -13400693.554 -3717717.129 10 0 60322 63000.00000 0 21537433.416 -13668805.832 -515381.138 10 0 60322 63900.00000 0 21340264.279 -13726932.926 2696961.506 10 0 60322 64800.00000 0 20829277.514 -13530824.541 5856963.771 10 0 60322 65700.00000 0 20048079.770 -13045151.012 8903335.852 10 0 60322 66600.00000 0 19048295.906 -12245212.922 11777030.348 10 0 60322 67500.00000 0 17887300.628 -11118212.347 14422380.680 10 0 60322 68400.00000 0 16625730.788 -9664032.337 16788171.179 10 0 60322 69300.00000 0 15324883.011 -7895491.883 18828618.851 10 0 60322 70200.00000 0 14044105.570 -5838065.444 20504248.859 10 0 60322 71100.00000 0 12838293.124 -3529078.204 21782647.969 10 0 60322 72000.00000 0 11755588.328 -1016409.788 22639082.533 10 0 60322 72900.00000 0 10835385.360 1643240.809 23056970.172 10 0 60322 73800.00000 0 10106717.746 4386458.463 23028196.914 10 0 60322 74700.00000 0 9587096.941 7145497.699 22553274.139 10 0 60322 75600.00000 0 9281849.489 9850853.858 21641332.441 10 0 60322 76500.00000 0 9183980.121 12433914.840 20309952.202 10 0 60322 77400.00000 0 9274566.511 14829585.034 18584833.431 10 0 60322 78300.00000 0 9523669.446 16978773.907 16499310.233 10 0 60322 79200.00000 0 9891720.829 18830646.895 14093718.009 10 0 60322 80100.00000 0 10331331.890 20344545.492 11414624.336 10 0 60322 81000.00000 0 10789446.239 21491496.789 8513937.140 10 0 60322 81900.00000 0 11209747.576 22255249.291 5447906.348 10 0 60322 82800.00000 0 11535220.763 22632791.308 2276037.655 10 0 60322 83700.00000 0 11710757.935 22634329.685 -940060.929 10 0 60322 84600.00000 0 11685698.948 22282729.262 -4137877.388 10 0 60322 85500.00000 0 11416197.751 21612436.160 -7255215.180 10 0 60323 0.00000 0 10867313.251 20667930.084 -10231409.299 10 0 60323 900.00000 0 10014734.272 19501770.252 -13008515.983 10 0 60323 1800.00000 0 8846064.621 18172318.814 -15532447.988 10 0 60323 2700.00000 0 7361611.135 16741236.499 -17754037.738 10 0 60323 3600.00000 0 5574640.228 15270857.764 -19630002.787 10 0 60323 4500.00000 0 3511090.186 13821556.260 -21123795.732 10 0 60323 5400.00000 0 1208749.808 12449212.210 -22206321.284 10 0 60323 6300.00000 0 -1284063.416 11202888.782 -22856506.299 10 0 60323 7200.00000 0 -3910271.150 10122815.512 -23061711.525 10 0 60323 8100.00000 0 -6606174.842 9238763.593 -22817977.146 10 0 60323 9000.00000 0 -9303880.182 8568881.074 -22130097.486 10 0 60323 9900.00000 0 -11933904.424 8119036.404 -21011523.612 10 0 60323 10800.00000 0 -14427857.968 7882697.090 -19484096.025 10 0 60323 11700.00000 0 -16721088.511 7841347.506 -17577612.885 10 0 60323 12600.00000 0 -18755177.600 7965427.051 -15329242.542 10 0 60323 13500.00000 0 -20480185.718 8215747.749 -12782792.160 10 0 60323 14400.00000 0 -21856552.671 8545330.158 -9987847.117 10 0 60323 15300.00000 0 -22856574.552 8901578.743 -6998798.503 10 0 60323 16200.00000 0 -23465396.558 9228703.604 -3873778.203 10 0 60323 17100.00000 0 -23681481.349 9470285.172 -673522.964 10 0 60323 18000.00000 0 -23516534.808 9571872.608 2539809.850 10 0 60323 18900.00000 0 -22994893.944 9483505.499 5703851.194 10 0 60323 19800.00000 0 -22152404.214 9162051.959 8757230.175 10 0 60323 20700.00000 0 -21034834.871 8573264.262 11640761.051 10 0 60323 21600.00000 0 -19695900.018 7693465.359 14298584.560 10 0 60323 22500.00000 0 -18194969.250 6510795.291 16679241.919 10 0 60323 23400.00000 0 -16594564.183 5025965.121 18736661.405 10 0 60323 24300.00000 0 -14957745.681 3252486.573 20431039.458 10 0 60323 25200.00000 0 -13345500.528 1216367.360 21729600.426 10 0 60323 26100.00000 0 -11814235.915 -1044715.845 22607221.433 10 0 60323 27000.00000 0 -10413485.231 -3482733.378 23046911.405 10 0 60323 27900.00000 0 -9183919.655 -6041054.152 23040135.892 10 0 60323 28800.00000 0 -8155747.293 -8656561.670 22586981.902 10 0 60323 29700.00000 0 -7347565.604 -11262048.402 21696159.751 10 0 60323 30600.00000 0 -6765714.194 -13788791.021 20384841.580 10 0 60323 31500.00000 0 -6404154.590 -16169201.243 18678338.956 10 0 60323 32400.00000 0 -6244881.833 -18339443.690 16609624.802 10 0 60323 33300.00000 0 -6258850.846 -20241913.061 14218707.603 10 0 60323 34200.00000 0 -6407379.039 -21827468.193 11551868.715 10 0 60323 35100.00000 0 -6643966.679 -23057330.154 8660776.239 10 0 60323 36000.00000 0 -6916458.770 -23904564.985 5601491.523 10 0 60323 36900.00000 0 -7169457.539 -24355088.588 2433386.819 10 0 60323 37800.00000 0 -7346883.575 -24408150.991 -782005.373 10 0 60323 38700.00000 0 -7394576.951 -24076278.884 -3982188.952 10 0 60323 39600.00000 0 -7262827.475 -23384678.125 -7104923.242 10 0 60323 40500.00000 0 -6908725.794 -22370120.733 -10089440.059 10 0 60323 41400.00000 0 -6298234.361 -21079362.859 -12877634.322 10 0 60323 42300.00000 0 -5407888.923 -19567160.233 -15415204.047 10 0 60323 43200.00000 0 -4226056.739 -17893964.763 -17652716.602 10 0 60323 44100.00000 0 -2753696.529 -16123399.588 -19546579.642 10 0 60323 45000.00000 0 -1004586.322 -14319619.275 -21059897.099 10 0 60323 45900.00000 0 994992.042 -12544666.656 -22163193.123 10 0 60323 46800.00000 0 3207099.908 -10855937.766 -22834989.569 10 0 60323 47700.00000 0 5583485.899 -9303861.619 -23062225.729 10 0 60323 48600.00000 0 8067371.668 -7929892.231 -22840512.158 10 0 60323 49500.00000 0 10595605.210 -6764896.865 -22174213.812 10 0 60323 50400.00000 0 13101092.063 -5828007.558 -21076361.104 10 0 60323 51300.00000 0 15515403.045 -5125983.229 -19568390.850 10 0 60323 52200.00000 0 17771449.693 -4653107.969 -17679722.416 10 0 60323 53100.00000 0 19806115.723 -4391628.373 -15447177.668 10 0 60323 54000.00000 0 21562734.644 -4312709.926 -12914256.375 10 0 60323 54900.00000 0 22993310.234 -4377870.509 -10130281.608 10 0 60323 55800.00000 0 24060387.373 -4540828.892 -7149432.328 10 0 60323 56700.00000 0 24738495.614 -4749688.678 -4029682.572 10 0 60323 57600.00000 0 25015105.914 -4949364.013 -831668.507 10 0 60323 58500.00000 0 24891061.567 -5084143.416 2382493.951 10 0 60323 59400.00000 0 24380466.578 -5100282.477 5550417.434 10 0 60323 60300.00000 0 23510037.525 -4948515.237 8610653.474 10 0 60323 61200.00000 0 22317947.435 -4586377.871 11503881.228 10 0 60323 62100.00000 0 20852211.315 -3980246.488 14174051.624 10 0 60323 63000.00000 0 19168681.826 -3107003.202 16569465.231 10 0 60323 63900.00000 0 17328739.514 -1955260.392 18643763.637 10 0 60323 64800.00000 0 15396774.252 -526091.682 20356816.181 10 0 60323 65700.00000 0 13437562.660 1166761.261 21675486.021 10 0 60323 66600.00000 0 11513650.203 3097215.323 22574261.901 10 0 60323 67500.00000 0 9682845.945 5227693.171 23035744.535 10 0 60323 68400.00000 0 7995933.040 7510457.049 23050979.091 10 0 60323 69300.00000 0 6494688.915 9889375.132 22619627.926 10 0 60323 70200.00000 0 5210296.296 12302048.705 21749980.416 10 0 60323 71100.00000 0 4162210.158 14682213.606 20458799.397 10 0 60323 72000.00000 0 3357527.009 16962317.857 18771006.564 10 0 60323 72900.00000 0 2790882.300 19076169.874 16719211.867 10 0 60323 73800.00000 0 2444880.043 20961548.340 14343094.765 10 0 60323 74700.00000 0 2291036.674 22562665.793 11688647.985 10 0 60323 75600.00000 0 2291199.734 23832383.551 8807297.141 10 0 60323 76500.00000 0 2399381.975 24734085.346 5754912.135 10 0 60323 77400.00000 0 2563933.767 25243130.738 2590728.738 10 0 60323 78300.00000 0 2729962.109 25347826.630 -623799.182 10 0 60323 79200.00000 0 2841893.718 25049875.146 -3826194.576 10 0 60323 80100.00000 0 2846073.122 24364278.018 -6954175.678 10 0 60323 81000.00000 0 2693284.796 23318700.604 -9946873.746 10 0 60323 81900.00000 0 2341091.262 21952321.536 -12746025.549 10 0 60323 82800.00000 0 1755886.621 20314215.906 -15297116.422 10 0 60323 83700.00000 0 914576.927 18461339.812 -17550450.695 10 0 60323 84600.00000 0 -194185.419 16456200.985 -19462127.828 10 0 60323 85500.00000 0 -1569267.109 14364313.682 -20994904.505 99